Temp
22 21 20 22 23 23 23 23 22 24 25 24 24 23 23 24 23 23 22 21 21 20 19 18 18 18 17 15 14 13 12 11 12 12 11 12 12 12 11 11 11 10 8 9
21 20 21 23 23 23 24 23 23 25 25 24 24 24 24 24 24 23 22 21 21 20 19 17 17 17 17 15 14 13 11 12 12 11 10 11 11 11 10 9 10 8 8 8
20 16 18 22 23 23 24 21 20 21 23 24 24 24 23 24 24 24 23 22 21 20 19 17 16 16 16 14 13 12 11 11 12 12 11 11 11 10 10 9 9 8 8 7
17 19 19 21 23 24 20 21 22 21 18 21 22 19 21 23 23 24 23 23 22 21 19 18 17 15 14 13 12 12 12 12 12 12 12 11 11 11 10 10 9 9 8 7
17 19 20 22 23 23 19 20 21 24 23 22 19 18 20 21 22 23 23 22 22 21 20 18 17 16 14 12 13 12 13 13 13 12 12 11 11 11 11 10 9 8 8 7
18 19 20 21 23 24 22 21 23 23 22 19 18 19 19 20 20 22 22 21 21 20 19 18 16 15 13 13 13 13 13 13 12 12 12 11 11 11 10 9 8 8 8 7
21 22 24 23 23 23 23 22 19 13 14 19 24 22 23 19 23 21 22 21 20 19 18 17 16 15 14 14 14 13 13 13 11 11 11 10 10 9 9 9 8 8 7 7
19 19 22 24 23 16 18 21 15 16 16 19 21 22 22 23 23 23 22 21 19 18 17 17 16 15 14 13 13 13 13 12 11 10 10 9 9 8 8 8 7 7 6 5
20 19 18 23 24 21 19 21 22 21 18 17 21 23 22 22 22 22 21 20 19 18 17 17 16 15 14 13 12 12 12 12 11 10 9 8 8 8 8 7 6 5 5 4
18 14 16 21 22 23 22 23 20 21 18 17 21 22 20 21 21 21 21 20 19 18 17 17 16 15 14 13 12 12 12 11 11 10 8 8 7 7 6 5 5 4 4 3
19 15 20 22 21 22 21 21 21 22 21 18 17 20 23 22 22 21 21 20 19 18 17 17 16 16 15 14 13 12 12 11 10 9 7 7 7 5 5 4 4 4 3 2
22 22 20 21 23 23 22 22 22 18 19 19 17 18 23 22 22 21 21 21 20 18 18 17 17 16 15 14 13 11 11 10 9 8 7 7 6 5 4 5 4 3 2 2
22 20 18 20 22 22 21 22 22 22 19 18 15 19 22 22 21 21 21 21 20 19 18 17 17 16 14 13 12 11 10 9 8 7 6 6 5 5 4 4 4 3 2 1
19 21 20 18 20 22 21 21 22 21 16 17 17 20 22 22 21 21 20 20 20 19 19 18 17 16 14 13 12 11 9 8 7 6 6 6 5 5 4 4 3 2 1 0
20 19 20 21 22 22 21 21 22 21 21 18 19 20 22 23 22 22 21 20 20 20 19 18 17 15 14 12 11 10 9 7 7 6 5 5 5 4 3 2 2 1 0 -0
20 18 18 18 20 20 19 20 20 21 21 21 21 21 23 22 21 20 20 19 20 19 19 17 16 15 13 12 11 9 7 6 5 5 5 4 2 3 2 2 1 0 -0 -1
19 17 16 15 17 16 13 17 19 20 21 21 19 21 22 22 21 20 19 19 18 18 17 16 15 14 13 12 10 8 7 6 5 4 3 2 3 2 1 1 -0 -0 -1 -1
19 17 15 14 11 12 18 20 20 19 20 21 21 20 21 18 18 18 18 17 17 17 16 15 14 13 12 10 9 7 6 5 4 2 2 2 2 1 1 0 -0 -1 -1 -2
19 16 13 11 14 17 18 19 19 18 18 19 19 19 19 17 16 16 16 15 15 15 14 14 13 12 10 9 7 6 5 4 3 2 2 1 1 1 0 -0 -1 -1 -2 -2
17 17 13 12 13 11 17 18 18 18 16 18 18 18 17 17 14 14 14 14 14 13 13 12 11 9 8 7 5 4 3 3 2 1 1 1 0 -0 -1 -1 -1 -2 -2 -3
11 11 10 12 11 14 19 17 16 15 14 16 16 16 16 15 13 12 12 12 12 12 11 10 8 7 6 4 3 2 1 1 1 0 1 1 -0 -1 -1 -1 -2 -2 -3 -3
12 12 9 13 9 10 17 16 15 15 15 15 15 15 14 13 13 12 11 11 11 9 8 7 6 4 2 1 1 1 0 1 -0 -0 1 -1 -1 -2 -2 -2 -2 -3 -3 -4
15 16 15 14 13 16 17 16 15 14 14 13 13 13 13 12 12 12 11 9 8 7 5 3 2 -0 -0 -0 -1 -0 -1 -2 -1 -1 -0 -1 -2 -3 -3 -3 -3 -3 -4 -4
18 16 15 15 18 17 16 14 12 12 11 12 11 10 10 11 11 10 9 7 5 2 0 0 0 -0 -1 -1 -1 -1 -1 -1 -1 -1 -1 -1 -2 -3 -3 -3 -4 -3 -4 -4
16 16 16 16 17 15 13 10 9 10 10 10 9 8 9 10 9 8 6 3 0 -0 -0 -1 -1 -0 -0 -1 -1 -1 -1 -2 -1 -2 -2 -2 -3 -3 -3 -4 -4 -4 -4 -5
16 15 13 13 12 12 9 8 8 8 7 7 7 5 5 6 5 4 1 0 -0 0 -0 -0 -1 -1 -0 -1 -1 -1 -2 -2 -2 -3 -3 -2 -3 -3 -3 -4 -4 -4 -4 -5
Height
1487 1488 1491 1486 1481 1480 1479 1480 1482 1473 1472 1475 1477 1481 1485 1488 1491 1495 1501 1506 1510 1515 1519 1522 1526 1530 1531 1532 1533 1536 1539 1544 1546 1547 1549 1550 1551 1553 1554 1556 1558 1558 1560 1563
1489 1492 1485 1482 1481 1478 1473 1478 1476 1469 1471 1474 1473 1477 1479 1484 1488 1491 1496 1502 1507 1513 1516 1520 1525 1527 1530 1530 1530 1533 1539 1541 1544 1547 1548 1548 1550 1552 1554 1555 1557 1559 1561 1562
1492 1501 1493 1485 1478 1475 1469 1486 1484 1487 1478 1472 1473 1478 1478 1482 1487 1489 1492 1496 1502 1507 1512 1518 1522 1525 1528 1527 1528 1533 1537 1539 1542 1547 1547 1549 1551 1553 1555 1556 1557 1558 1559 1560
1498 1491 1492 1479 1474 1470 1487 1485 1481 1487 1495 1491 1485 1505 1484 1480 1484 1484 1486 1490 1495 1501 1507 1514 1519 1522 1524 1527 1529 1532 1534 1537 1542 1544 1546 1548 1550 1552 1554 1555 1556 1556 1557 1558
1503 1491 1485 1477 1474 1473 1490 1483 1482 1473 1476 1484 1494 1507 1493 1486 1477 1476 1483 1488 1492 1497 1503 1509 1513 1518 1522 1526 1528 1530 1534 1538 1541 1545 1546 1548 1550 1551 1552 1553 1554 1555 1555 1554
1486 1487 1480 1472 1473 1472 1478 1481 1474 1474 1480 1497 1493 1498 1496 1490 1488 1477 1487 1490 1492 1497 1502 1507 1512 1516 1520 1524 1528 1530 1534 1537 1539 1543 1545 1546 1548 1549 1549 1551 1552 1553 1554 1554
1478 1476 1470 1472 1472 1471 1474 1477 1497 1533 1525 1497 1461 1477 1463 1474 1471 1474 1479 1488 1492 1496 1502 1507 1513 1517 1520 1524 1526 1529 1533 1534 1537 1540 1542 1544 1544 1545 1547 1548 1549 1550 1550 1551
1487 1492 1472 1469 1471 1490 1490 1482 1519 1522 1514 1492 1477 1478 1472 1466 1471 1471 1478 1486 1492 1497 1502 1507 1511 1515 1519 1522 1525 1528 1531 1532 1535 1537 1539 1540 1541 1543 1544 1544 1545 1545 1545 1545
1479 1485 1482 1472 1468 1478 1483 1481 1475 1486 1493 1499 1481 1468 1467 1468 1472 1475 1479 1486 1492 1497 1502 1506 1510 1514 1517 1521 1524 1526 1528 1530 1531 1535 1536 1537 1539 1539 1540 1541 1541 1542 1541 1540
1479 1501 1496 1477 1474 1472 1474 1472 1486 1484 1507 1508 1478 1467 1476 1474 1473 1477 1478 1485 1490 1496 1500 1505 1508 1512 1515 1518 1521 1524 1526 1526 1528 1531 1532 1534 1536 1536 1537 1538 1536 1536 1536 1535
1469 1491 1480 1474 1474 1471 1476 1479 1476 1476 1480 1501 1504 1484 1465 1468 1470 1476 1478 1482 1487 1492 1497 1501 1504 1508 1512 1514 1518 1520 1524 1524 1525 1526 1529 1530 1531 1532 1532 1536 1536 1534 1533 1531
1464 1465 1475 1470 1460 1463 1467 1470 1469 1491 1494 1488 1496 1492 1467 1469 1471 1474 1477 1479 1483 1488 1493 1497 1501 1503 1507 1511 1514 1517 1521 1521 1521 1524 1524 1527 1528 1525 1526 1531 1532 1531 1529 1527
1463 1470 1485 1477 1468 1465 1471 1469 1468 1470 1478 1491 1506 1490 1468 1471 1473 1474 1475 1477 1481 1485 1489 1493 1497 1499 1503 1507 1511 1515 1518 1520 1520 1520 1524 1525 1525 1526 1523 1527 1527 1526 1525 1524
1467 1466 1473 1486 1473 1464 1467 1469 1465 1469 1492 1491 1489 1478 1466 1466 1468 1470 1473 1476 1478 1481 1485 1488 1492 1495 1499 1504 1509 1513 1515 1517 1516 1520 1522 1524 1525 1524 1523 1523 1523 1522 1521 1520
1469 1475 1470 1465 1462 1461 1467 1466 1463 1468 1469 1482 1479 1474 1463 1459 1464 1466 1469 1472 1476 1479 1480 1484 1488 1492 1497 1502 1507 1510 1512 1513 1517 1520 1521 1522 1520 1519 1518 1520 1519 1518 1517 1516
1468 1474 1473 1473 1467 1466 1473 1469 1466 1465 1465 1463 1464 1465 1459 1461 1465 1468 1470 1473 1474 1477 1478 1482 1487 1491 1495 1500 1504 1507 1510 1514 1517 1520 1519 1518 1518 1519 1516 1516 1515 1515 1513 1511
1466 1474 1479 1486 1479 1481 1491 1473 1467 1464 1460 1462 1470 1463 1460 1461 1463 1468 1472 1473 1475 1478 1479 1481 1485 1490 1493 1497 1501 1505 1510 1514 1515 1515 1516 1517 1518 1518 1515 1513 1511 1511 1509 1506
1464 1471 1479 1488 1497 1503 1467 1458 1460 1463 1461 1459 1459 1460 1462 1466 1468 1471 1473 1475 1476 1478 1480 1482 1485 1489 1492 1495 1499 1504 1508 1509 1511 1511 1514 1514 1514 1513 1511 1511 1510 1507 1505 1502
1462 1472 1486 1497 1487 1472 1464 1459 1464 1466 1468 1464 1466 1467 1467 1471 1472 1473 1474 1477 1478 1479 1481 1482 1484 1487 1491 1495 1499 1502 1505 1507 1509 1511 1512 1511 1510 1508 1507 1505 1504 1503 1500 1498
1466 1467 1480 1489 1490 1500 1465 1465 1466 1466 1476 1470 1471 1472 1473 1473 1478 1479 1479 1479 1480 1480 1481 1483 1484 1487 1491 1495 1498 1502 1504 1506 1508 1510 1509 1508 1505 1503 1501 1499 1498 1496 1495 1493
1480 1482 1488 1487 1490 1477 1459 1465 1468 1478 1483 1475 1475 1475 1475 1477 1480 1481 1481 1480 1481 1481 1483 1483 1485 1490 1492 1493 1496 1499 1501 1506 1508 1507 1505 1502 1500 1498 1497 1496 1493 1491 1490 1487
1474 1477 1488 1480 1496 1493 1463 1467 1473 1474 1474 1475 1476 1476 1477 1479 1479 1480 1481 1481 1482 1483 1485 1487 1489 1490 1492 1495 1496 1499 1501 1501 1503 1504 1500 1498 1496 1494 1492 1489 1488 1487 1485 1481
1459 1457 1464 1468 1470 1463 1464 1467 1471 1473 1475 1477 1478 1478 1478 1478 1478 1478 1481 1482 1484 1486 1486 1487 1489 1490 1493 1496 1498 1501 1501 1500 1499 1497 1495 1493 1491 1489 1487 1485 1483 1481 1478 1475
1449 1454 1458 1461 1456 1460 1464 1469 1474 1476 1478 1478 1478 1478 1478 1477 1477 1477 1480 1483 1485 1486 1488 1491 1493 1495 1497 1499 1497 1497 1497 1495 1495 1492 1490 1488 1486 1485 1482 1480 1477 1475 1472 1469
1451 1454 1456 1457 1458 1463 1468 1473 1475 1477 1477 1478 1477 1478 1477 1476 1477 1478 1481 1482 1484 1488 1492 1494 1495 1495 1496 1497 1496 1495 1494 1493 1490 1489 1487 1485 1482 1480 1477 1474 1473 1470 1467 1465
1450 1452 1459 1461 1465 1467 1473 1475 1476 1477 1478 1478 1478 1478 1478 1477 1478 1479 1482 1486 1489 1492 1493 1494 1494 1496 1497 1496 1495 1493 1491 1490 1488 1485 1482 1480 1478 1475 1472 1468 1465 1463 1461 1458
Wind_Speed
7 6 9 12 14 11 6 7 13 13 10 12 11 14 13 17 16 21 21 20 21 22 17 17 16 17 18 20 22 22 21 18 15 12 12 11 12 10 12 11 7 1 1 4
9 10 6 9 15 18 13 6 9 11 10 10 11 10 13 14 17 19 20 22 22 22 20 16 17 18 14 22 24 23 20 14 11 7 7 8 12 10 6 5 5 8 6 3
7 8 24 19 22 17 11 8 9 11 7 9 7 11 15 14 16 19 21 24 23 23 22 18 18 17 18 23 24 18 17 14 15 14 12 12 12 14 14 10 6 8 4 5
5 17 21 22 5 7 5 9 10 15 11 9 7 6 2 11 14 17 23 22 26 26 22 21 18 20 23 23 21 16 18 14 16 16 16 17 17 11 9 7 8 9 9 9
15 11 20 18 4 3 4 15 17 11 9 4 4 7 17 11 16 14 13 17 20 22 21 22 22 23 20 19 20 19 20 19 19 18 16 15 10 16 15 12 11 8 9 12
13 17 26 2 3 0 14 13 12 9 9 6 15 12 9 13 16 9 17 19 16 16 16 16 18 14 20 19 18 24 21 21 19 18 15 14 15 11 9 10 9 7 8 7
0 12 4 8 8 5 7 8 3 5 6 5 9 7 2 19 14 20 18 18 19 18 18 19 21 23 24 24 23 23 22 20 18 16 15 15 13 13 11 10 7 9 12 14
9 10 11 9 5 4 17 1 2 3 3 6 13 4 5 12 8 12 18 17 18 18 20 23 24 25 25 24 23 22 21 19 18 17 15 15 13 9 10 9 13 15 14 14
1 2 10 16 3 11 11 4 3 6 3 2 5 11 7 7 8 6 15 18 20 20 22 24 25 26 25 23 21 20 19 19 20 17 17 16 15 14 14 13 14 13 11 11
6 6 16 21 5 5 6 6 3 2 2 4 8 11 10 7 8 6 12 17 21 20 22 24 25 24 24 23 20 19 17 23 20 19 18 15 12 12 9 8 10 10 13 12
7 13 11 8 8 8 5 7 6 8 4 1 4 4 6 7 8 7 8 17 21 22 23 24 25 26 22 21 21 23 19 19 20 20 17 18 17 8 9 9 9 11 11 13
12 5 4 10 2 5 10 11 8 3 6 3 0 5 4 6 6 7 8 15 20 23 23 25 25 25 24 20 20 18 18 19 19 18 20 14 16 5 5 9 12 12 12 13
4 4 5 9 7 8 8 12 9 8 2 5 3 3 6 6 4 4 5 10 15 19 22 24 24 23 23 19 18 17 21 17 19 20 12 7 3 7 9 12 13 14 13 14
5 5 9 6 11 4 6 10 11 10 3 4 9 13 7 11 10 9 11 6 9 18 20 23 24 21 17 18 18 18 18 21 21 12 4 7 10 10 9 13 14 14 15 17
3 8 12 14 14 12 8 13 7 10 10 10 11 15 12 9 5 4 6 9 10 12 16 18 16 16 16 17 18 18 19 18 14 8 7 8 8 11 15 13 12 15 17 17
5 6 5 8 10 13 10 14 15 14 15 15 14 14 11 10 11 11 9 9 8 9 10 12 13 14 16 18 19 18 14 8 8 9 9 9 12 11 10 11 16 17 15 18
7 3 2 2 6 7 5 10 15 16 15 11 12 10 8 9 5 9 4 7 3 8 9 10 14 15 16 17 18 16 12 10 11 7 6 7 10 9 10 15 15 17 19 19
6 5 2 1 1 1 9 3 5 5 8 9 10 10 11 14 12 8 6 7 7 3 7 6 8 10 12 13 13 12 12 12 8 5 4 8 8 11 18 15 18 19 19 18
4 5 2 2 4 7 12 2 2 1 3 11 9 9 10 11 9 17 7 6 7 7 4 4 7 10 11 11 12 14 10 5 3 5 9 7 13 14 14 16 18 20 18 20
2 5 3 3 3 5 1 6 3 2 2 8 9 7 7 5 3 7 9 5 6 3 2 5 9 11 12 11 9 8 6 4 3 7 7 14 14 14 15 17 20 20 19 20
2 1 4 3 2 5 3 6 1 3 3 7 8 10 10 7 5 7 10 5 4 3 6 9 11 13 13 12 10 6 1 5 2 8 14 16 15 15 18 19 20 19 19 22
7 6 3 2 2 6 7 6 2 5 6 9 8 9 7 6 9 7 8 3 5 8 13 13 13 14 11 8 8 4 1 5 11 13 18 17 16 16 17 18 20 19 20 25
4 5 4 7 4 6 7 10 7 6 7 9 8 9 9 9 9 5 2 6 9 12 12 14 13 13 10 5 8 4 4 8 14 19 19 17 17 17 16 17 19 20 23 26
5 5 2 2 4 9 8 13 10 8 7 7 7 7 8 8 7 4 8 12 14 13 13 10 7 6 6 2 8 7 9 15 16 16 16 16 17 18 20 20 16 18 21 25
2 8 5 5 3 13 13 11 7 6 6 6 7 10 9 4 10 14 16 16 14 10 8 5 2 2 4 6 8 10 11 15 18 15 18 19 19 20 21 20 20 21 23 24
5 0 3 1 6 7 11 8 8 9 10 10 11 12 15 14 16 15 15 12 9 2 1 4 5 7 8 10 12 13 13 14 17 20 21 22 22 24 24 21 25 25 25 21
Wind_Direction
251 213 213 224 220 236 256 251 224 203 182 224 211 155 169 179 187 161 168 172 173 174 161 163 177 181 186 184 194 200 202 202 196 208 220 239 207 199 195 195 207 45 323 276
251 332 287 248 239 247 283 297 231 159 173 222 223 185 170 184 191 183 174 174 177 178 172 173 187 186 180 187 203 212 204 203 174 179 203 176 178 167 163 195 184 204 229 254
244 188 279 259 244 243 265 111 314 3 288 223 259 221 166 186 207 208 189 184 185 182 172 184 188 187 190 183 198 205 198 186 150 180 167 151 139 163 182 217 218 214 262 297
341 272 263 280 263 277 6 330 195 168 250 220 7 307 112 172 210 208 197 192 187 189 183 186 189 189 198 207 210 192 167 159 174 183 166 170 174 186 195 248 211 235 272 276
200 308 292 256 204 43 175 244 267 259 277 188 31 297 216 243 220 206 211 208 193 184 188 181 193 207 223 192 174 164 168 173 183 169 183 184 196 201 204 205 216 230 268 276
152 211 249 82 284 38 174 224 241 271 296 218 208 214 152 199 234 219 202 201 197 191 175 181 186 182 176 170 179 172 171 176 182 181 184 191 207 186 192 216 224 234 266 241
65 241 222 183 213 180 228 268 267 34 319 224 272 204 89 203 209 177 186 181 189 167 173 173 175 170 167 172 174 174 177 184 185 192 194 198 203 196 199 205 228 236 247 263
166 238 248 199 253 94 320 282 128 344 246 323 354 262 104 98 109 111 152 174 168 172 174 179 176 177 174 178 180 179 186 188 189 195 195 199 199 204 197 220 226 251 249 261
256 127 4 310 243 154 216 264 106 284 105 315 263 280 100 106 110 132 155 170 174 179 181 185 183 184 183 186 188 187 193 195 201 204 203 195 193 201 213 246 249 248 252 257
128 31 289 252 233 219 261 348 283 198 289 263 301 257 120 164 137 167 170 178 178 186 189 194 190 192 190 194 198 199 202 200 208 195 201 199 203 232 280 243 251 243 256 266
150 169 200 164 211 254 176 242 241 263 269 101 320 77 49 89 133 162 216 181 185 190 196 199 199 197 199 201 204 200 198 204 194 195 193 201 216 235 241 254 248 256 259 273
226 304 265 224 342 354 322 299 231 185 271 175 16 288 88 109 130 167 205 191 195 193 202 202 206 199 196 201 200 195 200 203 191 194 205 227 259 256 200 252 265 265 266 280
243 231 269 281 220 199 237 251 248 275 111 236 175 256 149 153 168 180 234 205 198 199 202 206 208 206 191 200 209 211 202 205 199 205 233 250 188 220 238 248 258 262 276 281
331 248 250 243 261 344 235 239 252 230 156 239 258 274 232 204 196 204 181 244 229 204 213 213 204 199 199 205 208 210 199 204 207 228 199 214 248 239 255 253 255 266 275 286
241 245 261 264 274 286 287 297 265 256 250 235 252 261 273 315 36 291 187 199 223 260 217 221 201 201 208 212 211 202 201 208 220 205 230 233 244 278 258 261 264 269 286 297
200 247 288 298 300 292 279 278 281 274 277 274 269 268 276 16 39 10 6 314 281 266 238 215 232 216 210 212 200 201 199 209 215 219 224 257 308 255 254 258 270 293 291 285
193 235 138 249 347 352 321 250 252 263 266 263 269 280 298 311 344 7 338 307 308 293 285 220 224 216 215 204 200 200 201 207 206 225 281 310 269 272 273 282 283 283 286 294
187 216 87 152 303 294 243 45 349 334 317 309 318 359 356 45 30 352 319 325 335 270 294 261 219 207 193 185 184 193 199 200 214 282 288 268 269 280 305 293 285 288 290 286
221 132 140 157 213 277 305 147 358 21 336 35 22 12 28 38 359 33 76 44 13 342 290 245 195 186 181 173 176 183 188 225 251 255 287 292 316 297 280 283 287 286 286 285
165 155 157 170 224 214 127 112 69 355 211 48 20 22 356 347 312 59 19 3 347 331 201 169 171 158 149 160 166 159 178 198 301 301 277 303 287 282 286 283 283 286 283 291
92 311 180 153 221 291 84 118 120 221 69 25 7 357 8 358 73 1 356 3 22 77 125 149 134 124 150 160 157 154 310 347 276 317 312 298 289 285 283 286 282 281 286 286
171 162 184 161 154 263 138 133 157 57 14 14 351 350 354 319 326 341 356 29 89 107 92 105 124 136 120 113 121 135 145 287 281 300 284 282 288 291 285 283 285 289 285 279
193 187 179 172 204 146 122 67 70 34 19 14 0 340 333 320 314 306 96 104 104 105 111 117 127 115 118 75 49 32 259 275 271 270 287 292 292 292 289 282 281 282 283 287
196 89 164 69 191 169 117 92 64 35 11 356 359 3 342 327 321 109 117 120 110 106 99 94 85 63 62 211 263 294 278 273 290 289 294 303 299 293 288 295 295 288 287 291
22 140 206 204 270 97 91 65 39 26 30 27 45 34 12 14 80 110 116 122 118 118 98 90 111 306 310 319 302 287 281 280 292 301 298 300 301 299 297 289 289 289 283 288
172 52 158 76 76 67 84 64 59 71 63 65 86 74 78 108 117 129 121 120 110 91 118 84 25 337 306 294 294 296 304 299 290 288 293 297 294 295 296 291 288 284 293 297